Regional Weather Roundup
Issued by NWS

Home | Current Version | Previous Version | Text Only | Print | Product List | Glossary Off
Versions: 1 2 3 4 5 6 7 8 9 10 11 12 13 14 15 16 17 18 19 20 21 22 23 24 25 26 27

000
ASUS45 KBOU 230407
RWRCO

WEATHER ROUNDUP FOR COLORADO
NATIONAL WEATHER SERVICE DENVER/BOULDER CO
1000 PM MDT SAT JUL 22 2017

NOTE: "FAIR" INDICATES FEW OR NO CLOUDS BELOW 12000 FEET WITH NO
SIGNIFICANT WEATHER AND/OR OBSTRUCTIONS TO VISIBILITY.

COZ001>005-013-030-031-230500-
...NORTHWEST COLORADO...

CITY           SKY/WX    TMP DP  RH WIND       PRES   REMARKS
CRAIG          FAIR      61  48  62 CALM      30.24R
HAYDEN         FAIR      64  37  36 SE3       30.27R
MEEKER         FAIR      66  40  38 NE6       30.25R
RABBIT EARS PA FAIR      57  30  35 N7        30.61R
STEAMBOAT SPGS FAIR      65  40  39 CALM      30.30R
WALDEN         FAIR      59  34  38 NE6       30.43R
$$

COZ006>008-011-230500-
...WEST CENTRAL VALLEYS...

CITY           SKY/WX    TMP DP  RH WIND       PRES   REMARKS
GRAND JUNCTION FAIR      82  51  34 SE10      30.09R
MONTROSE       FAIR      74  48  39 SE9       30.22R
EAGLE          FAIR      71  44  37 CALM      30.28R
RIFLE          FAIR      81  36  19 SW6       30.16R
DELTA          FAIR      79  46  31 E3        30.18R
NUCLA          NOT AVBL
$$

COZ017>023-064>068-230500-
...SOUTHWEST COLORADO...

CITY           SKY/WX    TMP DP  RH WIND       PRES   REMARKS
DURANGO        FAIR      61  52  72 N8        30.29S
CORTEZ         FAIR      68  53  58 CALM      30.22R
PAGOSA SPRINGS FAIR      58  55  89 CALM      30.40S
TELLURIDE      FAIR      61  45  56 CALM      30.49R
WOLF CREEK PAS HVY SNOW  43  43 100 N12G21    30.76R VSB<1/4
$$

COZ009-010-012-014-032>034-037-058>063-230500-
...CENTRAL COLORADO...

CITY           SKY/WX    TMP DP  RH WIND       PRES   REMARKS
ASPEN          CLOUDY    67  48  50 S8        30.36R
BUENA VISTA    FAIR      57  50  78 E3        30.47R
COPPER MTN     MOCLDY    54  37  54 SW7       30.72R
BERTHOUD PASS  FAIR      45  32  61 SE13G21   30.75S
COTTONWOOD PAS FAIR      54  48  82 W3        30.58S
GUNNISON       FAIR      61  50  67 NE6       30.43R
KREMMLING      FAIR      73  32  21 CALM      30.35R
LEADVILLE      MOCLDY    50  46  86 SE3       30.56R
SALIDA         FAIR      60  55  83 N3        30.50S
SUNLIGHT       FAIR      54  28  37 N5        30.64R
WILKERSON PASS FAIR      48  43  81 W3        30.70R
$$

COZ069>075-230500-
...SAN LUIS VALLEY/SANGRE DE CRISTO MOUNTAINS...

CITY           SKY/WX    TMP DP  RH WIND       PRES   REMARKS
ALAMOSA        FAIR      60  50  69 N13       30.42S
DEL NORTE      LGT RAIN  58  50  74 CALM      30.50R
LA VETA PASS   NOT AVBL
SAGUACHE         N/A    N/A N/A N/A MISG        N/A
$$

COZ035-036-038>040-230500-
...NORTHERN COLORADO FRONT RANGE...

CITY           SKY/WX    TMP DP  RH WIND       PRES   REMARKS
DENVER INTL AP MOCLDY    73  54  51 SE12      30.19R
DMNS CITY PARK   N/A     76  50  40 S3        30.18S
AURORA         MOCLDY    73  56  55 S5        30.21
FRONT RANGE AP FAIR      75  57  53 SE14      30.21R
ERIE MUNI ARPT FAIR      74  56  53 CALM      30.17R
BOULDER MUN AP FAIR      73  48  40 CALM      30.18R
CENTENNIAL     MOCLDY    76  52  43 S7        30.22R
BROOMFIELD     MOCLDY    77  50  38 N3        30.21R
FORT COLLINS   FAIR      75  51  43 E12       30.17R
LONGMONT       FAIR      72  54  53 W3        30.18R
$$

COZ041-046-047-076>085-087-088-230500-
...PIKES PEAK/PALMER DIVIDE AND SOUTHERN FOOTHILLS...

CITY           SKY/WX    TMP DP  RH WIND       PRES   REMARKS
COLO. SPRINGS  MOCLDY    71  58  63 CALM      30.28R
A. F. ACADEMY  FAIR      67  53  59 CALM      30.29
SCHRIEVER AFB  FAIR      69  53  57 CALM      30.28
CHEYENNE MTN   MOCLDY    71  49  45 SW8       30.27
ELLICOTT       FAIR     N/A N/A N/A SE6       30.26R
FALCON           N/A     66  53  61 CALM      30.33S
FORT CARSON    FAIR      65  55  71 W7        30.23
LIMON          FAIR      63  57  81 SE3       30.23R
MONUMENT HILL  FAIR      63  54  72 SW3       30.34R
CANON CITY     CLEAR     70  55  60 W14G21    30.23R
WALSENBURG     MOCLDY    70  50  49 W20G30    30.26F
TRINIDAD       CLOUDY    69  53  56 W12       30.24R
$$

COZ042>045-048>051-090-091-230500-
...NORTHEAST COLORADO...

CITY           SKY/WX    TMP DP  RH WIND       PRES   REMARKS
GREELEY ARPT   FAIR      72  54  53 E8        30.16R
AKRON          FAIR      70  54  56 SE10      30.17R
BURLINGTON     FAIR      68  51  54 CALM      30.15R
WRAY           NOT AVBL
YUMA           FAIR      63  54  72 S6        30.13F
STERLING       FAIR      70  55  60 CALM      30.12R
HOLYOKE        FAIR      64  55  72 CALM      30.13R
FORT MORGAN    FAIR      67  51  56 E8        30.17S
$$

COZ086-089-092>099-230500-
...SOUTHEAST COLORADO...

CITY           SKY/WX    TMP DP  RH WIND       PRES   REMARKS
PUEBLO         FAIR      76  53  44 W9        30.15S
LA JUNTA       FAIR      72  59  63 CALM      30.14R
LAMAR          FAIR      72  56  57 CALM      30.10R
SPRINGFIELD      N/A     72  57  59 N9        30.15R
$$




USA.gov is the U.S. government's official web portal to all federal, state and local government web resources and services.